Time,TemperatureF,DewpointF,PressureIn,WindDirection,WindDirectionDegrees,WindSpeedMPH,WindSpeedGustMPH,Humidity,HourlyPrecipIn,Conditions,Clouds,dailyrainin,SoftwareType,DateUTC
2013-04-28 00:02:00,53.0,-99.9,-100.00,NW,306,0.0,1.0,-999,0.00,,,0.00,,2013-04-28 05:02:00,
2013-04-28 00:12:00,52.0,-99.9,-100.00,NW,307,2.0,3.0,-999,0.00,,,0.00,,2013-04-28 05:12:00,
2013-04-28 00:22:00,52.0,-99.9,-100.00,NW,307,2.0,3.0,-999,0.00,,,0.00,,2013-04-28 05:22:00,
2013-04-28 00:33:00,52.0,-99.9,-100.00,NW,307,2.0,3.0,-999,0.00,,,0.00,,2013-04-28 05:33:00,
2013-04-28 00:42:00,53.0,-99.9,-100.00,NW,322,2.0,2.0,-999,0.00,,,0.00,,2013-04-28 05:42:00,
2013-04-28 00:52:00,53.0,-99.9,-100.00,NW,322,2.0,2.0,-999,0.00,,,0.00,,2013-04-28 05:52:00,
2013-04-28 01:02:00,53.0,-99.9,-100.00,NW,322,2.0,2.0,-999,0.00,,,0.00,,2013-04-28 06:02:00,
2013-04-28 01:13:00,53.0,-99.9,-100.00,NW,312,0.0,1.0,-999,0.00,,,0.00,,2013-04-28 06:13:00,
2013-04-28 01:22:00,53.0,-99.9,-100.00,NW,312,0.0,1.0,-999,0.00,,,0.00,,2013-04-28 06:22:00,
2013-04-28 01:32:00,53.0,-99.9,-100.00,NW,312,0.0,1.0,-999,0.00,,,0.00,,2013-04-28 06:32:00,
2013-04-28 01:42:00,53.0,-99.9,-100.00,NW,312,0.0,0.0,-999,0.00,,,0.00,,2013-04-28 06:42:00,
2013-04-28 01:52:00,53.0,-99.9,-100.00,NW,312,0.0,0.0,-999,0.00,,,0.00,,2013-04-28 06:52:00,
2013-04-28 02:02:00,53.0,-99.9,-100.00,NW,312,0.0,0.0,-999,0.00,,,0.00,,2013-04-28 07:02:00,
2013-04-28 02:11:00,52.0,-99.9,-100.00,WSW,257,0.0,1.0,-999,0.00,,,0.00,,2013-04-28 07:11:00,
2013-04-28 02:22:00,52.0,-99.9,-100.00,WSW,257,0.0,1.0,-999,0.00,,,0.00,,2013-04-28 07:22:00,
2013-04-28 02:32:00,52.0,-99.9,-100.00,WSW,257,0.0,1.0,-999,0.00,,,0.00,,2013-04-28 07:32:00,
2013-04-28 02:42:00,51.0,-99.9,-100.00,NW,325,2.0,3.0,-999,0.00,,,0.00,,2013-04-28 07:42:00,
2013-04-28 02:52:00,51.0,-99.9,-100.00,NW,325,2.0,3.0,-999,0.00,,,0.00,,2013-04-28 07:52:00,
2013-04-28 03:02:00,51.0,-99.9,-100.00,NW,325,2.0,3.0,-999,0.00,,,0.00,,2013-04-28 08:02:00,
2013-04-28 03:12:00,51.0,-99.9,-100.00,WNW,302,2.0,3.0,-999,0.00,,,0.00,,2013-04-28 08:12:00,
2013-04-28 03:22:00,51.0,-99.9,-100.00,WNW,302,2.0,3.0,-999,0.00,,,0.00,,2013-04-28 08:22:00,
2013-04-28 03:32:00,51.0,-99.9,-100.00,WNW,302,2.0,3.0,-999,0.00,,,0.00,,2013-04-28 08:32:00,
2013-04-28 03:42:00,50.0,-99.9,-100.00,WNW,285,1.0,2.0,-999,0.00,,,0.00,,2013-04-28 08:42:00,
2013-04-28 03:52:00,50.0,-99.9,-100.00,WNW,285,1.0,2.0,-999,0.00,,,0.00,,2013-04-28 08:52:00,
2013-04-28 04:01:00,50.0,-99.9,-100.00,WNW,285,1.0,2.0,-999,0.00,,,0.00,,2013-04-28 09:01:00,
2013-04-28 04:12:00,50.0,-99.9,-100.00,West,261,0.0,0.0,-999,0.00,,,0.00,,2013-04-28 09:12:00,
2013-04-28 04:22:00,50.0,-99.9,-100.00,West,261,0.0,0.0,-999,0.00,,,0.00,,2013-04-28 09:22:00,
2013-04-28 04:33:00,50.0,-99.9,-100.00,West,261,0.0,0.0,-999,0.00,,,0.00,,2013-04-28 09:33:00,
2013-04-28 04:43:00,50.0,-99.9,-100.00,South,170,1.0,2.0,-999,0.00,,,0.00,,2013-04-28 09:43:00,
2013-04-28 04:53:00,50.0,-99.9,-100.00,South,170,1.0,2.0,-999,0.00,,,0.00,,2013-04-28 09:53:00,
2013-04-28 05:03:00,50.0,-99.9,-100.00,South,170,1.0,2.0,-999,0.00,,,0.00,,2013-04-28 10:03:00,
2013-04-28 05:12:00,49.0,-99.9,-100.00,SW,222,0.0,1.0,-999,0.00,,,0.00,,2013-04-28 10:12:00,
2013-04-28 05:23:00,49.0,-99.9,-100.00,SW,222,0.0,1.0,-999,0.00,,,0.00,,2013-04-28 10:23:00,
2013-04-28 05:32:00,49.0,-99.9,-100.00,SW,222,0.0,1.0,-999,0.00,,,0.00,,2013-04-28 10:32:00,
2013-04-28 05:42:00,49.0,-99.9,-100.00,West,259,0.0,1.0,-999,0.00,,,0.00,,2013-04-28 10:42:00,
2013-04-28 05:53:00,49.0,-99.9,-100.00,West,259,0.0,1.0,-999,0.00,,,0.00,,2013-04-28 10:53:00,
2013-04-28 06:03:00,49.0,-99.9,-100.00,West,259,0.0,1.0,-999,0.00,,,0.00,,2013-04-28 11:03:00,
2013-04-28 06:11:00,50.0,-99.9,-100.00,West,276,5.0,7.0,-999,0.00,,,0.00,,2013-04-28 11:11:00,
2013-04-28 06:22:00,50.0,-99.9,-100.00,West,276,5.0,7.0,-999,0.00,,,0.00,,2013-04-28 11:22:00,
2013-04-28 06:32:00,50.0,-99.9,-100.00,West,276,5.0,7.0,-999,0.00,,,0.00,,2013-04-28 11:32:00,
2013-04-28 06:42:00,50.0,-99.9,-100.00,West,270,5.0,7.0,-999,0.00,,,0.00,,2013-04-28 11:42:00,
2013-04-28 06:52:00,50.0,-99.9,-100.00,West,270,5.0,7.0,-999,0.00,,,0.00,,2013-04-28 11:52:00,
2013-04-28 07:02:00,50.0,-99.9,-100.00,West,270,5.0,7.0,-999,0.00,,,0.00,,2013-04-28 12:02:00,
2013-04-28 07:12:00,50.0,-99.9,-100.00,West,281,5.0,7.0,-999,0.00,,,0.00,,2013-04-28 12:12:00,
2013-04-28 07:22:00,50.0,-99.9,-100.00,West,281,5.0,7.0,-999,0.00,,,0.00,,2013-04-28 12:22:00,
2013-04-28 07:32:00,50.0,-99.9,-100.00,West,281,5.0,7.0,-999,0.00,,,0.00,,2013-04-28 12:32:00,
2013-04-28 07:42:00,50.0,-99.9,-100.00,WNW,300,7.0,8.0,-999,0.00,,,0.00,,2013-04-28 12:42:00,
2013-04-28 07:52:00,50.0,-99.9,-100.00,WNW,300,7.0,8.0,-999,0.00,,,0.00,,2013-04-28 12:52:00,
2013-04-28 08:02:00,50.0,-99.9,-100.00,WNW,300,7.0,8.0,-999,0.00,,,0.00,,2013-04-28 13:02:00,
2013-04-28 08:11:00,51.0,-99.9,-100.00,NW,314,4.0,6.0,-999,0.00,,,0.00,,2013-04-28 13:11:00,
2013-04-28 08:22:00,51.0,-99.9,-100.00,NW,314,4.0,6.0,-999,0.00,,,0.00,,2013-04-28 13:22:00,
2013-04-28 08:32:00,51.0,-99.9,-100.00,NW,314,4.0,6.0,-999,0.00,,,0.00,,2013-04-28 13:32:00,
2013-04-28 08:42:00,52.0,-99.9,-100.00,WNW,298,4.0,5.0,-999,0.00,,,0.00,,2013-04-28 13:42:00,
2013-04-28 08:52:00,52.0,-99.9,-100.00,WNW,298,4.0,5.0,-999,0.00,,,0.00,,2013-04-28 13:52:00,
2013-04-28 09:02:00,52.0,-99.9,-100.00,WNW,298,4.0,5.0,-999,0.00,,,0.00,,2013-04-28 14:02:00,
2013-04-28 09:11:00,55.0,-99.9,-100.00,West,274,6.0,8.0,-999,0.00,,,0.00,,2013-04-28 14:11:00,
2013-04-28 09:22:00,55.0,-99.9,-100.00,West,274,6.0,8.0,-999,0.00,,,0.00,,2013-04-28 14:22:00,
2013-04-28 09:32:00,55.0,-99.9,-100.00,West,274,6.0,8.0,-999,0.00,,,0.00,,2013-04-28 14:32:00,
2013-04-28 09:42:00,54.0,-99.9,-100.00,NW,318,6.0,7.0,-999,0.00,,,0.00,,2013-04-28 14:42:00,
2013-04-28 09:52:00,54.0,-99.9,-100.00,NW,318,6.0,7.0,-999,0.00,,,0.00,,2013-04-28 14:52:00,
2013-04-28 10:02:00,54.0,-99.9,-100.00,NW,318,6.0,7.0,-999,0.00,,,0.00,,2013-04-28 15:02:00,
2013-04-28 10:12:00,55.0,-99.9,-100.00,NW,305,5.0,6.0,-999,0.00,,,0.00,,2013-04-28 15:12:00,
2013-04-28 10:22:00,55.0,-99.9,-100.00,NW,305,5.0,6.0,-999,0.00,,,0.00,,2013-04-28 15:22:00,
2013-04-28 10:33:00,55.0,-99.9,-100.00,NW,305,5.0,6.0,-999,0.00,,,0.00,,2013-04-28 15:33:00,
2013-04-28 10:43:00,56.0,-99.9,-100.00,NW,320,6.0,6.0,-999,0.00,,,0.00,,2013-04-28 15:43:00,
2013-04-28 10:53:00,56.0,-99.9,-100.00,NW,320,6.0,6.0,-999,0.00,,,0.00,,2013-04-28 15:53:00,
2013-04-28 11:03:00,56.0,-99.9,-100.00,NW,320,6.0,6.0,-999,0.00,,,0.00,,2013-04-28 16:03:00,
2013-04-28 11:13:00,58.0,-99.9,-100.00,WNW,302,5.0,6.0,-999,0.00,,,0.00,,2013-04-28 16:13:00,
2013-04-28 11:23:00,58.0,-99.9,-100.00,WNW,302,5.0,6.0,-999,0.00,,,0.00,,2013-04-28 16:23:00,
2013-04-28 11:33:00,58.0,-99.9,-100.00,WNW,302,5.0,6.0,-999,0.00,,,0.00,,2013-04-28 16:33:00,
2013-04-28 11:43:00,63.0,-99.9,-100.00,WSW,255,3.0,5.0,-999,0.00,,,0.00,,2013-04-28 16:43:00,
2013-04-28 11:53:00,63.0,-99.9,-100.00,WSW,255,3.0,5.0,-999,0.00,,,0.00,,2013-04-28 16:53:00,
2013-04-28 12:02:00,63.0,-99.9,-100.00,WSW,255,3.0,5.0,-999,0.00,,,0.00,,2013-04-28 17:02:00,
2013-04-28 12:12:00,66.0,-99.9,-100.00,West,265,3.0,4.0,-999,0.00,,,0.00,,2013-04-28 17:12:00,
2013-04-28 12:22:00,66.0,-99.9,-100.00,West,265,3.0,4.0,-999,0.00,,,0.00,,2013-04-28 17:22:00,
2013-04-28 12:32:00,66.0,-99.9,-100.00,West,265,3.0,4.0,-999,0.00,,,0.00,,2013-04-28 17:32:00,
2013-04-28 12:43:00,67.0,-99.9,-100.00,SW,228,3.0,5.0,-999,0.00,,,0.00,,2013-04-28 17:43:00,
2013-04-28 12:52:00,67.0,-99.9,-100.00,SW,228,3.0,5.0,-999,0.00,,,0.00,,2013-04-28 17:52:00,
2013-04-28 13:02:00,67.0,-99.9,-100.00,SW,228,3.0,5.0,-999,0.00,,,0.00,,2013-04-28 18:02:00,
2013-04-28 13:12:00,67.0,-99.9,-100.00,West,271,4.0,5.0,-999,0.00,,,0.00,,2013-04-28 18:12:00,
2013-04-28 13:23:00,67.0,-99.9,-100.00,West,271,4.0,5.0,-999,0.00,,,0.00,,2013-04-28 18:23:00,
2013-04-28 13:32:00,67.0,-99.9,-100.00,West,271,4.0,5.0,-999,0.00,,,0.00,,2013-04-28 18:32:00,
2013-04-28 13:42:00,68.0,-99.9,-100.00,West,274,2.0,5.0,-999,0.00,,,0.00,,2013-04-28 18:42:00,
2013-04-28 13:52:00,68.0,-99.9,-100.00,West,274,2.0,5.0,-999,0.00,,,0.00,,2013-04-28 18:52:00,
2013-04-28 14:02:00,68.0,-99.9,-100.00,West,274,2.0,5.0,-999,0.00,,,0.00,,2013-04-28 19:02:00,
2013-04-28 14:11:00,66.0,-99.9,-100.00,NW,309,4.0,5.0,-999,0.00,,,0.00,,2013-04-28 19:11:00,
2013-04-28 14:22:00,66.0,-99.9,-100.00,NW,309,4.0,5.0,-999,0.00,,,0.00,,2013-04-28 19:22:00,
2013-04-28 14:32:00,66.0,-99.9,-100.00,NW,309,4.0,5.0,-999,0.00,,,0.00,,2013-04-28 19:32:00,
2013-04-28 14:42:00,69.0,-99.9,-100.00,South,184,3.0,4.0,-999,0.00,,,0.00,,2013-04-28 19:42:00,
2013-04-28 14:52:00,69.0,-99.9,-100.00,South,184,3.0,4.0,-999,0.00,,,0.00,,2013-04-28 19:52:00,
2013-04-28 15:02:00,69.0,-99.9,-100.00,South,184,3.0,4.0,-999,0.00,,,0.00,,2013-04-28 20:02:00,
2013-04-28 15:12:00,69.0,-99.9,-100.00,South,182,3.0,5.0,-999,0.00,,,0.00,,2013-04-28 20:12:00,
2013-04-28 15:22:00,69.0,-99.9,-100.00,South,182,3.0,5.0,-999,0.00,,,0.00,,2013-04-28 20:22:00,
2013-04-28 15:33:00,69.0,-99.9,-100.00,South,182,3.0,5.0,-999,0.00,,,0.00,,2013-04-28 20:33:00,
2013-04-28 15:42:00,68.0,-99.9,-100.00,South,178,3.0,4.0,-999,0.00,,,0.00,,2013-04-28 20:42:00,
2013-04-28 15:52:00,68.0,-99.9,-100.00,South,178,3.0,4.0,-999,0.00,,,0.00,,2013-04-28 20:52:00,
2013-04-28 16:01:00,68.0,-99.9,-100.00,South,178,3.0,4.0,-999,0.00,,,0.00,,2013-04-28 21:01:00,
2013-04-28 16:12:00,71.0,-99.9,-100.00,West,268,1.0,2.0,-999,0.00,,,0.00,,2013-04-28 21:12:00,
2013-04-28 16:22:00,71.0,-99.9,-100.00,West,268,1.0,2.0,-999,0.00,,,0.00,,2013-04-28 21:22:00,
2013-04-28 16:33:00,71.0,-99.9,-100.00,West,268,1.0,2.0,-999,0.00,,,0.00,,2013-04-28 21:33:00,
2013-04-28 16:43:00,71.0,-99.9,-100.00,South,189,1.0,2.0,-999,0.00,,,0.00,,2013-04-28 21:43:00,
2013-04-28 16:53:00,71.0,-99.9,-100.00,South,189,1.0,2.0,-999,0.00,,,0.00,,2013-04-28 21:53:00,
2013-04-28 17:03:00,71.0,-99.9,-100.00,South,189,1.0,2.0,-999,0.00,,,0.00,,2013-04-28 22:03:00,
2013-04-28 17:13:00,71.0,-99.9,-100.00,SSW,194,1.0,3.0,-999,0.00,,,0.00,,2013-04-28 22:13:00,
2013-04-28 17:23:00,71.0,-99.9,-100.00,SSW,194,1.0,3.0,-999,0.00,,,0.00,,2013-04-28 22:23:00,
2013-04-28 17:34:00,71.0,-99.9,-100.00,SSW,194,1.0,3.0,-999,0.00,,,0.00,,2013-04-28 22:34:00,
2013-04-28 17:43:00,71.0,-99.9,-100.00,South,191,1.0,2.0,-999,0.00,,,0.00,,2013-04-28 22:43:00,
2013-04-28 17:53:00,71.0,-99.9,-100.00,South,191,1.0,2.0,-999,0.00,,,0.00,,2013-04-28 22:53:00,
2013-04-28 18:02:00,71.0,-99.9,-100.00,South,191,1.0,2.0,-999,0.00,,,0.00,,2013-04-28 23:02:00,
2013-04-28 18:12:00,72.0,-99.9,-100.00,SSW,211,3.0,6.0,-999,0.00,,,0.00,,2013-04-28 23:12:00,
2013-04-28 18:22:00,72.0,-99.9,-100.00,SSW,211,3.0,6.0,-999,0.00,,,0.00,,2013-04-28 23:22:00,
2013-04-28 18:32:00,72.0,-99.9,-100.00,SSW,211,3.0,6.0,-999,0.00,,,0.00,,2013-04-28 23:32:00,
2013-04-28 18:40:00,72.0,-99.9,-100.00,SW,218,4.0,8.0,-999,0.00,,,0.00,,2013-04-28 23:40:00,
2013-04-28 18:42:00,71.0,-99.9,-100.00,SW,229,4.0,6.0,-999,0.00,,,0.00,,2013-04-28 23:42:00,
2013-04-28 18:52:00,71.0,-99.9,-100.00,SW,229,4.0,6.0,-999,0.00,,,0.00,,2013-04-28 23:52:00,
2013-04-28 19:02:00,71.0,-99.9,-100.00,SW,229,4.0,6.0,-999,0.00,,,0.00,,2013-04-29 00:02:00,
2013-04-28 19:11:00,72.0,-99.9,-100.00,SW,218,4.0,8.0,-999,0.00,,,0.00,,2013-04-29 00:11:00,
2013-04-28 19:22:00,72.0,-99.9,-100.00,SW,218,4.0,8.0,-999,0.00,,,0.00,,2013-04-29 00:22:00,
2013-04-28 19:32:00,72.0,-99.9,-100.00,SW,218,4.0,8.0,-999,0.00,,,0.00,,2013-04-29 00:32:00,
2013-04-28 20:12:00,67.0,-99.9,-100.00,South,181,3.0,4.0,-999,0.00,,,0.00,,2013-04-29 01:12:00,
2013-04-28 20:22:00,67.0,-99.9,-100.00,South,181,3.0,4.0,-999,0.00,,,0.00,,2013-04-29 01:22:00,
2013-04-28 20:32:00,67.0,-99.9,-100.00,South,181,3.0,4.0,-999,0.00,,,0.00,,2013-04-29 01:32:00,
2013-04-28 20:42:00,64.0,-99.9,-100.00,SSE,165,3.0,5.0,-999,0.00,,,0.00,,2013-04-29 01:42:00,
2013-04-28 20:52:00,64.0,-99.9,-100.00,SSE,165,3.0,5.0,-999,0.00,,,0.00,,2013-04-29 01:52:00,
2013-04-28 21:02:00,64.0,-99.9,-100.00,SSE,165,3.0,5.0,-999,0.00,,,0.00,,2013-04-29 02:02:00,
2013-04-28 21:11:00,64.0,-99.9,-100.00,SW,235,1.0,2.0,-999,0.00,,,0.00,,2013-04-29 02:11:00,
2013-04-28 21:22:00,64.0,-99.9,-100.00,SW,235,1.0,2.0,-999,0.00,,,0.00,,2013-04-29 02:22:00,
2013-04-28 21:32:00,64.0,-99.9,-100.00,SW,235,1.0,2.0,-999,0.00,,,0.00,,2013-04-29 02:32:00,
2013-04-28 21:42:00,65.0,-99.9,-100.00,SW,225,2.0,6.0,-999,0.00,,,0.00,,2013-04-29 02:42:00,
2013-04-28 21:52:00,65.0,-99.9,-100.00,SW,225,2.0,6.0,-999,0.00,,,0.00,,2013-04-29 02:52:00,
2013-04-28 22:02:00,65.0,-99.9,-100.00,SW,225,2.0,6.0,-999,0.00,,,0.00,,2013-04-29 03:02:00,
2013-04-28 22:12:00,63.0,-99.9,-100.00,SSW,195,4.0,5.0,-999,0.00,,,0.00,,2013-04-29 03:12:00,
2013-04-28 22:22:00,63.0,-99.9,-100.00,SSW,195,4.0,5.0,-999,0.00,,,0.00,,2013-04-29 03:22:00,
2013-04-28 22:33:00,63.0,-99.9,-100.00,SSW,195,4.0,5.0,-999,0.00,,,0.00,,2013-04-29 03:33:00,
2013-04-28 22:43:00,61.0,-99.9,-100.00,South,189,5.0,7.0,-999,0.00,,,0.00,,2013-04-29 03:43:00,
2013-04-28 22:53:00,61.0,-99.9,-100.00,South,189,5.0,7.0,-999,0.00,,,0.00,,2013-04-29 03:53:00,
2013-04-28 23:03:00,61.0,-99.9,-100.00,South,189,5.0,7.0,-999,0.00,,,0.00,,2013-04-29 04:03:00,
2013-04-28 23:13:00,60.0,-99.9,-100.00,South,191,5.0,8.0,-999,0.00,,,0.00,,2013-04-29 04:13:00,
2013-04-28 23:23:00,60.0,-99.9,-100.00,South,191,5.0,8.0,-999,0.00,,,0.00,,2013-04-29 04:23:00,
2013-04-28 23:33:00,60.0,-99.9,-100.00,South,191,5.0,8.0,-999,0.00,,,0.00,,2013-04-29 04:33:00,
2013-04-28 23:43:00,59.0,-99.9,-100.00,SSW,195,6.0,8.0,-999,0.00,,,0.00,,2013-04-29 04:43:00,
2013-04-28 23:52:00,59.0,-99.9,-100.00,SSW,195,6.0,8.0,-999,0.00,,,0.00,,2013-04-29 04:52:00,